Regional Weather Roundup
Issued by NWS Midland/Odessa, TX

Skip options and go directly to product.
Home | Oldest Version | Previous Version | Current Version | All | Graphics & Text | Save Text | Print | Product List | Glossary On

Skip product version selection by date and time.   
624
ASUS44 KMAF 180310
RWRMAF
MIDLAND AREA WEATHER ROUNDUP
NATIONAL WEATHER SERVICE MIDLAND TX
1000 PM CDT THU APR 17 2014

...IN SOUTHWEST TEXAS AND SOUTHEAST NEW MEXICO...

CITY           SKY/WX    TMP DP  RH WIND       PRES   REMARKS
ALPINE         CLEAR     59  25  26 CALM      30.21R
ANDREWS        FAIR      56  44  63 E16       30.18R
ARTESIA        CLEAR     59  28  31 CALM      30.13R
BIG SPRING     CLEAR     56  46  69 NE20      30.20R
CARLSBAD       CLEAR     65  30  27 NE6       30.11R
DRYDEN           N/A     70  47  43 E8        30.07R
FORT STOCKTON  CLEAR     66  39  37 E8        30.10R
GUAD PASS      CLEAR     57  28  33 NE25      30.19R
HOBBS          CLEAR     57  39  51 E13G18    30.18R
MARFA          CLEAR     57  25  28 NE8       30.18R
MIDLAND AIRPK  CLEAR     59  46  63 NE17      30.18R
MIDLAND INTL   CLEAR     59  46  62 E17       30.16R
ODESSA         CLEAR     60  46  59 NE16      30.16R
PECOS          CLEAR     66  34  29 NE7       30.09R
PRESIDIO       FAIR      76  27  16 NE13      30.02R
SEMINOLE       CLEAR     55  42  61 E12G17    30.20R
SNYDER         CLOUDY    55  50  83 N15       30.21R
WINK           CLEAR     65  45  48 E17G25    30.10R
$$
...OTHER STATIONS IN TEXAS...

CITY           SKY/WX    TMP DP  RH WIND       PRES   REMARKS
ABILENE        CLOUDY    56  52  86 N9        30.18R
AMARILLO       CLEAR     42  35  76 E8        30.24R WCI  37
AUSTIN         LGT RAIN  61  60  97 NE7       30.15R FOG
BROWNSVILLE    CLOUDY    70  67  90 E8        30.03R
CORPUS CHRISTI DRIZZLE   66  62  87 E13       30.09R
DALLAS FTW     CLOUDY    60  53  77 N7        30.19R
DEL RIO        CLEAR     73  56  54 E15G23    30.06R
EL PASO        PTCLDY    72  22  15 E14       30.05R
HOUSTON INT    CLOUDY    64  56  75 E10       30.15R
LUBBOCK        PTCLDY    47  39  74 NE12      30.22R
SAN ANGELO     CLEAR     58  53  84 NE8       30.15R
SAN ANTONIO    LGT RAIN  63  62  97 E7        30.14R FOG
WACO           CLOUDY    61  59  93 CALM      30.17R FOG
WICHITA FALLS  NOT AVBL
$$
...OTHER LOCATIONS IN NEW MEXICO...

CITY           SKY/WX    TMP DP  RH WIND       PRES   REMARKS
ALAMAGORDO     PTCLDY    64  27  24 SE3       30.08R
ALBUQUERQUE    CLEAR     60  22  23 E12       30.11R
CANNON AFB     CLEAR     50  35  55 E12       30.21R
CLOVIS         CLEAR     46  34  61 E13       30.25R
HOLLOMAN AFB   PTCLDY    67  29  23 SE8       30.06R
ROSWELL        CLEAR     61  30  31 E3        30.13R
RUIDOSO        CLEAR     46  25  42 SE7       30.27R
SANTA FE       CLEAR     54  24  31 SE16      30.15R
TRUTH OR CONSE CLEAR     67  23  19 SE8       30.06R
TUCUMCARI      CLEAR     51  34  52 E10       30.18R
$$

USA.gov is the U.S. government's official web portal to all federal, state and local government web resources and services.